Flag for Germany Weather past 2 weeks in Oranienburg, Brandenburg, Germany

Now
53 °F

Fog.


Feels Like: 53 °F
Forecast: 51 / 71 °F
Wind: 2 mph from East

Location: Berlin-Tegel


UV Index: 3 (Moderate)

Visibility: 5 mi


Pressure: 30.05 "Hg

Humidity: 94%

Dew point: 51 °F

Location of OranienburgLocation

Historic Weather in Oranienburg

°F

Oranienburg temperature yesterday

Maximum temperature yesterday: 65 °F (at 7:00 PM)
Minimum temperature yesterday: 47 °F (at 4:00 AM)
Average temperature yesterday: 56 °F

Past Weeks' High & Low Weather Summary

 TemperatureHumidityPressure
High70 °F (Apr 19, 5:00 PM)98% (Apr 12, 8:00 AM)30.46 "Hg (Apr 12, 8:00 AM)
Low33 °F (Apr 16, 7:00 AM)28% (Apr 16, 5:00 PM)29.70 "Hg (Apr 14, 9:00 AM)
Average52 °F71%30.02 "Hg
* Reported Apr 10 5:00 AM — Apr 25 5:00 AM, Oranienburg, Weather by CustomWeather, © 2014

Note: Actual official high and low records may vary slightly from our data, if they occured in-between our weather recording intervals... More about our weather records

Advertising

Historic Weather Conditions — Data for Previous 24 hours

 ConditionsComfort  
Time TempWeatherWind HumidityBarometerVisibility
5:00 AM
Apr 25
52 °FFog.1 mph95%30.05 "Hg6 mi
4:00 AM53 °FPassing clouds.2 mph93%30.05 "Hg7 mi
3:00 AM54 °FPassing clouds.2 mph93%30.06 "Hg7 mi
2:00 AM55 °FPassing clouds.2 mph91%30.07 "Hg9 mi
1:00 AM56 °FFog.2 mph91%30.09 "Hg7 mi
12:00 AM56 °FPassing clouds.2 mph91%30.10 "Hg9 mi
11:00 PM
Apr 24
58 °FPassing clouds.1 mph85%30.10 "Hg9 mi
10:00 PM59 °FPassing clouds.2 mph81%30.11 "Hg9 mi
9:00 PM61 °FPassing clouds.2 mph77%30.10 "Hg9 mi
8:00 PM63 °FPartly sunny.2 mph73%30.10 "Hg16 mi
7:00 PM65 °FScattered clouds.2 mph67%30.10 "Hg14 mi
6:00 PM65 °FScattered clouds.2 mph65%30.11 "Hg14 mi
5:00 PM65 °FScattered clouds.3 mph66%30.12 "Hg12 mi
4:00 PM63 °FPartly sunny.2 mph71%30.13 "Hg11 mi
3:00 PM63 °FPartly sunny.1 mph74%30.15 "Hg9 mi
2:00 PM60 °FOvercast.2 mph81%30.16 "Hg7 mi
1:00 PM57 °FOvercast.2 mph83%30.17 "Hg7 mi
12:00 PM56 °FLow clouds.1 mph87%30.19 "Hg6 mi
11:00 AM53 °FFog.1 mph94%30.19 "Hg3 mi
10:00 AM51 °FFog.1 mph97%30.19 "Hg1 mi
9:00 AM50 °FFog.1 mph98%30.18 "Hg1 mi
8:00 AM49 °FFog.1 mph98%30.18 "Hg1 mi
7:00 AM49 °FFog.2 mph97%30.17 "Hg1 mi
6:00 AM48 °FFog.1 mph97%30.16 "Hg1 mi
Weather by CustomWeather, © 2014

See weather overview